This is the latest recevied weather packets stored in our database for station/object N9ALD. If no packets are shown the sender has not sent any weather packets the latest 10 day(s).
| Time | Temp. | Humidity | Pressure | Rain* | Wind** | Luminosity | Snow |
|---|---|---|---|---|---|---|---|
| 1777251149 | 17.22° C | 67% | 1011.8 hPa | 0 mm | - | 0 W/m² | - |
| 1777250846 | 17.78° C | 66% | 1011.7 hPa | 0 mm | - | 0 W/m² | - |
| 1777250543 | 17.78° C | 65% | 1011.4 hPa | 0 mm | - | 1 W/m² | - |
| 1777250243 | 17.78° C | 64% | 1011.3 hPa | 0 mm | - | 2 W/m² | - |
| 1777249940 | 17.78° C | 63% | 1011.2 hPa | 0 mm | - | 3 W/m² | - |
| 1777249636 | 18.33° C | 62% | 1011.2 hPa | 0 mm | - | 4 W/m² | - |
| 1777249332 | 18.33° C | 61% | 1011.1 hPa | 0 mm | - | 6 W/m² | - |
| 1777249029 | 18.89° C | 59% | 1011 hPa | 0 mm | - | 9 W/m² | - |
| 1777248725 | 18.89° C | 58% | 1011 hPa | 0 mm | - | 11 W/m² | - |
| 1777248422 | 19.44° C | 56% | 1011.1 hPa | 0 mm | - | 14 W/m² | - |
| 1777248119 | 20° C | 55% | 1011.1 hPa | 0 mm | - | 18 W/m² | - |
| 1777247816 | 20.56° C | 52% | 1011.2 hPa | 0 mm | - | 23 W/m² | - |
| 1777247514 | 21.11° C | 50% | 1011.1 hPa | 0 mm | - | 29 W/m² | - |
| 1777247212 | 21.67° C | 48% | 1011.4 hPa | 0 mm | - | 33 W/m² | - |
| 1777246909 | 21.67° C | 48% | 1011.5 hPa | 0 mm | - | 39 W/m² | - |
| 1777246605 | 22.22° C | 48% | 1011.7 hPa | 0 mm | - | 45 W/m² | - |
| 1777246302 | 22.22° C | 47% | 1011.5 hPa | 0 mm | - | 53 W/m² | - |
| 1777246000 | 22.22° C | 48% | 1011.8 hPa | 0 mm | - | 63 W/m² | - |
| 1777245698 | 22.22° C | 48% | 1011.9 hPa | 0 mm | - | 71 W/m² | - |
| 1777245394 | 22.22° C | 49% | 1012 hPa | 0 mm | - | 87 W/m² | - |
| 1777245089 | 22.78° C | 48% | 1011.8 hPa | 0 mm | - | 97 W/m² | - |
| 1777244786 | 22.78° C | 47% | 1011.7 hPa | 0 mm | - | 109 W/m² | - |
| 1777244482 | 22.78° C | 48% | 1011.6 hPa | 0 mm | - | 122 W/m² | - |
| 1777244178 | 22.78° C | 47% | 1011.4 hPa | 0 mm | - | 134 W/m² | - |
| 1777243878 | 22.78° C | 46% | 1011.4 hPa | 0 mm | - | 147 W/m² | - |
* Rain latest hour (hover to see other rain measurements)
** Current wind speed in m/s (hover to see current wind gust speed)